This is the latest recevied weather packets stored in our database for station/object PY3MO-11. If no packets are shown the sender has not sent any weather packets the latest 10 day(s).
| Time | Temp. | Humidity | Pressure | Rain* | Wind** | Luminosity | Snow |
|---|---|---|---|---|---|---|---|
| 1777988339 | 23.89° C | 67% | 1021 hPa | 0 mm | - | - | - |
| 1777988040 | 23.33° C | 68% | 1020.8 hPa | 0 mm | - | - | - |
| 1777987740 | 23.33° C | 68% | 1020.9 hPa | 0 mm | - | - | - |
| 1777987439 | 23.33° C | 68% | 1020.9 hPa | 0 mm | - | - | - |
| 1777987139 | 22.78° C | 68% | 1020.8 hPa | 0 mm | - | - | - |
| 1777986841 | 23.33° C | 69% | 1020.9 hPa | 0 mm | - | - | - |
| 1777986540 | 23.33° C | 69% | 1020.8 hPa | 0 mm | - | - | - |
| 1777986241 | 22.78° C | 70% | 1020.9 hPa | 0 mm | - | - | - |
| 1777985940 | 22.22° C | 74% | 1020.7 hPa | 0 mm | - | - | - |
| 1777985640 | 21.67° C | 74% | 1020.7 hPa | 0 mm | - | - | - |
| 1777985340 | 21.67° C | 74% | 1020.5 hPa | 0.25 mm | - | - | - |
| 1777985040 | 21.67° C | 74% | 1020.5 hPa | 0.25 mm | - | - | - |
| 1777984740 | 21.67° C | 73% | 1020.5 hPa | 0.25 mm | - | - | - |
| 1777984440 | 22.22° C | 74% | 1020.5 hPa | 0.25 mm | - | - | - |
| 1777984139 | 21.67° C | 76% | 1020.4 hPa | 0.25 mm | - | - | - |
| 1777983839 | 21.11° C | 75% | 1020.4 hPa | 0.25 mm | - | - | - |
| 1777983539 | 21.11° C | 76% | 1020.2 hPa | 0.25 mm | - | - | - |
| 1777983239 | 21.11° C | 75% | 1020.2 hPa | 0.25 mm | - | - | - |
| 1777982941 | 21.67° C | 74% | 1020.3 hPa | 0.25 mm | - | - | - |
| 1777982640 | 21.11° C | 76% | 1019.9 hPa | 0.25 mm | - | - | - |
| 1777982340 | 20.56° C | 77% | 1020 hPa | 0.25 mm | - | - | - |
| 1777982040 | 20.56° C | 79% | 1020.1 hPa | 0.25 mm | - | - | - |
| 1777981740 | 20° C | 83% | 1019.9 hPa | 0 mm | - | - | - |
| 1777981440 | 19.44° C | 87% | 1020 hPa | 0 mm | - | - | - |
| 1777981142 | 18.33° C | 88% | 1019.8 hPa | 0 mm | - | - | - |
* Rain latest hour (hover to see other rain measurements)
** Current wind speed in m/s (hover to see current wind gust speed)